Frankfort, MI

6:07 PM EDT on September 19, 2017 (GMT -0400)
Frankfort

Weather History for KFKS - November, 2012

Change the Weather History Date:

Wednesday, November 7, 2012

  Actual Average (KMBL) Record (KMBL)
Temperature  
Mean Temperature 42 °F -  
Max Temperature 50 °F 47 °F 69 °F (1975)
Min Temperature 33 °F 33 °F 15 °F (1992)
Degree Days  
Heating Degree Days 24    
Moisture  
Dew Point 30 °F    
Average Humidity 66    
Maximum Humidity 87    
Minimum Humidity 42    
Precipitation  
Precipitation 0.00 in - - ()
Sea Level Pressure  
Sea Level Pressure 30.08 in    
Wind  
Wind Speed 5 mph (SE)    
Max Wind Speed 10 mph    
Max Gust Speed -    
Visibility 10 miles    
Events      
Averages and records for this station are not official NWS values.
T = Trace of Precipitation, MM = Missing Value Source: NWS Daily Summary

Daily Weather History Graph

Daily Weather History Graph

Search for Another Location

Airport or City:

Trip Planner

Search our weather history database for the weather conditions in past years. The results will help you decide how hot, cold, wet, or windy it might be!

Date:

Astronomy

Nov. 07, 2012 Rise Set
Actual Time 7:31 AM EST 5:25 PM EST
Civil Twilight 7:00 AM EST 5:56 PM EST
Nautical Twilight 6:25 AM EST 6:30 PM EST
Astronomical Twilight 5:51 AM EST 7:04 PM EST
Moon 12:08 AM EST (11/7) 1:49 PM EST (11/7)
Length of Visible Light 10h 55m
Length of Day
9h 53m
Last Quarter, 43% of the Moon is Illuminated
Nov 7
Last Quarter
Nov 13
New
Nov 20
First Quarter
Nov 28
Full
Dec 6
Last Quarter

Hourly Weather History & Observations

Time (EST) Temp. Windchill Dew Point Humidity Pressure Visibility Wind Dir Wind Speed Gust Speed Precip Events Conditions
12:12 AM 38.7 °F 33.6 °F 32.0 °F 77% 29.97 in 10.0 mi ESE 6.9 mph - N/A   Overcast
12:33 AM 39.2 °F 35.0 °F 31.6 °F 74% 29.97 in 10.0 mi ESE 5.8 mph - N/A   Overcast
12:53 AM 39.4 °F 36.1 °F 30.9 °F 72% 29.97 in 10.0 mi ESE 4.6 mph - N/A   Overcast
1:13 AM 39.7 °F 36.5 °F 30.2 °F 69% 29.97 in 10.0 mi ESE 4.6 mph - N/A   Overcast
1:33 AM 40.1 °F 36.1 °F 29.5 °F 66% 29.97 in 10.0 mi ESE 5.8 mph - N/A   Overcast
1:54 AM 40.3 °F 37.1 °F 28.9 °F 64% 29.97 in 10.0 mi ESE 4.6 mph - N/A   Overcast
2:14 AM 40.3 °F 36.3 °F 28.6 °F 63% 29.98 in 10.0 mi ESE 5.8 mph - N/A   Overcast
2:34 AM 40.5 °F 35.8 °F 28.4 °F 62% 29.98 in 10.0 mi SE 6.9 mph - N/A   Overcast
2:54 AM 40.5 °F 36.5 °F 28.4 °F 62% 29.98 in 10.0 mi ESE 5.8 mph - N/A   Overcast
3:14 AM 40.5 °F 35.1 °F 28.4 °F 62% 29.99 in 10.0 mi ESE 8.1 mph - N/A   Overcast
3:35 AM 40.3 °F 36.3 °F 28.4 °F 63% 29.99 in 10.0 mi ESE 5.8 mph - N/A   Overcast
3:55 AM 40.3 °F 37.1 °F 28.4 °F 63% 29.99 in 10.0 mi ESE 4.6 mph - N/A   Overcast
4:15 AM 40.1 °F 36.1 °F 28.4 °F 63% 29.99 in 10.0 mi ESE 5.8 mph - N/A   Overcast
4:30 AM 40.1 °F 36.9 °F 28.4 °F 63% 30.00 in 10.0 mi ESE 4.6 mph - N/A   Overcast
4:51 AM 39.6 °F 35.4 °F 28.4 °F 64% 30.00 in 10.0 mi ESE 5.8 mph - N/A   Mostly Cloudy
5:11 AM 39.6 °F 34.7 °F 28.4 °F 64% 30.01 in 10.0 mi ESE 6.9 mph - N/A   Scattered Clouds
5:31 AM 39.2 °F 35.0 °F 28.4 °F 65% 30.01 in 10.0 mi ESE 5.8 mph - N/A   Clear
5:51 AM 38.5 °F 34.1 °F 28.4 °F 67% 30.02 in 10.0 mi ESE 5.8 mph - N/A   Clear
6:12 AM 38.7 °F 33.6 °F 28.6 °F 67% 30.03 in 10.0 mi ESE 6.9 mph - N/A   Clear
6:32 AM 38.1 °F 35.7 °F 28.4 °F 68% 30.04 in 10.0 mi ESE 3.5 mph - N/A   Clear
6:52 AM 37.0 °F 34.5 °F 28.8 °F 72% 30.05 in 10.0 mi ESE 3.5 mph - N/A   Clear
7:12 AM 37.0 °F 33.3 °F 28.9 °F 73% 30.05 in 10.0 mi ESE 4.6 mph - N/A   Clear
7:33 AM 37.2 °F 33.6 °F 28.9 °F 72% 30.07 in 10.0 mi ESE 4.6 mph - N/A   Clear
7:53 AM 37.0 °F 33.3 °F 29.1 °F 73% 30.08 in 10.0 mi ESE 4.6 mph - N/A   Scattered Clouds
8:13 AM 37.8 °F 33.3 °F 29.3 °F 72% 30.09 in 10.0 mi ESE 5.8 mph - N/A   Overcast
8:33 AM 37.9 °F 34.4 °F 29.3 °F 71% 30.10 in 10.0 mi ESE 4.6 mph - N/A   Overcast
8:53 AM 38.1 °F 34.6 °F 29.1 °F 70% 30.10 in 10.0 mi ESE 4.6 mph - N/A   Overcast
9:14 AM 38.7 °F 34.3 °F 29.3 °F 69% 30.10 in 10.0 mi ESE 5.8 mph - N/A   Overcast
9:34 AM 40.5 °F 35.1 °F 29.1 °F 64% 30.10 in 10.0 mi SE 8.1 mph - N/A   Mostly Cloudy
9:54 AM 41.2 °F 36.0 °F 28.4 °F 60% 30.10 in 10.0 mi SE 8.1 mph - N/A   Scattered Clouds
10:14 AM 42.4 °F 37.0 °F 28.6 °F 58% 30.10 in 10.0 mi SE 9.2 mph - N/A   Scattered Clouds
10:34 AM 43.3 °F 39.2 °F 28.2 °F 55% 30.10 in 10.0 mi SE 6.9 mph - N/A   Clear
10:55 AM 44.4 °F 39.0 °F 27.7 °F 52% 30.11 in 10.0 mi SE 10.4 mph - N/A   Clear
11:15 AM 45.1 °F 41.4 °F 28.0 °F 51% 30.11 in 10.0 mi SSE 6.9 mph - N/A   Clear
11:35 AM 45.3 °F 43.0 °F 27.7 °F 50% 30.11 in 10.0 mi SE 4.6 mph - N/A   Clear
11:55 AM 45.9 °F 43.6 °F 27.7 °F 49% 30.11 in 10.0 mi South 4.6 mph - N/A   Clear
12:11 PM 46.6 °F - 27.7 °F 48% 30.11 in 10.0 mi SE 6.9 mph - N/A   Clear
12:31 PM 47.3 °F - 27.5 °F 46% 30.09 in 10.0 mi SE 8.1 mph - N/A   Clear
12:51 PM 47.8 °F - 27.3 °F 45% 30.08 in 10.0 mi ESE 5.8 mph - N/A   Clear
1:11 PM 48.0 °F - 26.6 °F 43% 30.09 in 10.0 mi SE 4.6 mph - N/A   Clear
1:32 PM 49.5 °F - 27.3 °F 42% 30.09 in 10.0 mi Calm Calm - N/A   Clear
1:52 PM 50.2 °F - 29.1 °F 44% 30.09 in 10.0 mi West 5.8 mph - N/A   Clear
2:12 PM 49.8 °F - 29.1 °F 45% 30.09 in 10.0 mi WNW 6.9 mph - N/A   Clear
2:32 PM 49.5 °F - 31.5 °F 50% 30.09 in 10.0 mi West 8.1 mph - N/A   Clear
2:52 PM 48.2 °F - 30.9 °F 51% 30.09 in 10.0 mi West 6.9 mph - N/A   Clear
3:13 PM 48.2 °F - 31.3 °F 52% 30.09 in 10.0 mi West 6.9 mph - N/A   Clear
3:33 PM 48.2 °F - 31.5 °F 52% 30.09 in 10.0 mi West 6.9 mph - N/A   Clear
3:53 PM 48.2 °F - 31.6 °F 53% 30.09 in 10.0 mi West 4.6 mph - N/A   Clear
4:13 PM 47.5 °F - 31.6 °F 54% 30.10 in 10.0 mi West 4.6 mph - N/A   Clear
4:33 PM 46.6 °F - 29.3 °F 51% 30.10 in 10.0 mi NW 4.6 mph - N/A   Clear
4:54 PM 45.1 °F 43.7 °F 30.2 °F 56% 30.10 in 10.0 mi North 3.5 mph - N/A   Clear
5:14 PM 43.9 °F - 31.3 °F 61% 30.10 in 10.0 mi Calm Calm - N/A   Clear
5:34 PM 40.5 °F - 31.5 °F 70% 30.10 in 10.0 mi Calm Calm - N/A   Clear
5:54 PM 38.7 °F - 31.3 °F 75% 30.11 in 7.0 mi Calm Calm - N/A   Clear
6:15 PM 36.9 °F - 31.5 °F 81% 30.12 in 10.0 mi Calm Calm - N/A   Clear
6:35 PM 35.2 °F - 30.2 °F 82% 30.13 in 10.0 mi Calm Calm - N/A   Clear
6:55 PM 36.1 °F - 31.8 °F 84% 30.13 in 10.0 mi Calm Calm - N/A   Mostly Cloudy
7:15 PM 35.6 °F - 31.5 °F 85% 30.14 in 10.0 mi Calm Calm - N/A   Scattered Clouds
7:30 PM 33.6 °F - 29.3 °F 84% 30.14 in 10.0 mi Calm Calm - N/A   Scattered Clouds
7:51 PM 34.7 °F - 31.1 °F 87% 30.13 in 10.0 mi Calm Calm - N/A   Mostly Cloudy
8:11 PM 34.9 °F - 31.1 °F 86% 30.14 in 10.0 mi Calm Calm - N/A   Overcast
8:31 PM 36.5 °F - 32.0 °F 84% 30.14 in 10.0 mi Calm Calm - N/A   Overcast
8:51 PM 37.0 °F - 32.4 °F 83% 30.14 in 10.0 mi Calm Calm - N/A   Overcast
9:11 PM 36.7 °F - 32.4 °F 84% 30.14 in 10.0 mi Calm Calm - N/A   Overcast
9:32 PM 36.9 °F - 32.4 °F 84% 30.14 in 10.0 mi Calm Calm - N/A   Overcast
9:52 PM 38.3 °F - 32.9 °F 81% 30.14 in 10.0 mi Calm Calm - N/A   Overcast
10:12 PM 38.3 °F - 33.8 °F 84% 30.14 in 10.0 mi Calm Calm - N/A   Overcast
10:32 PM 37.9 °F - 33.1 °F 83% 30.14 in 10.0 mi Calm Calm - N/A   Overcast
10:52 PM 38.3 °F - 33.3 °F 82% 30.14 in 10.0 mi Calm Calm - N/A   Overcast
11:13 PM 38.3 °F - 33.6 °F 83% 30.14 in 10.0 mi Calm Calm - N/A   Overcast
11:33 PM 38.5 °F - 33.4 °F 82% 30.13 in 10.0 mi Calm Calm - N/A   Overcast
11:53 PM 38.7 °F - 33.8 °F 83% 30.13 in 10.0 mi Calm Calm - N/A   Overcast